This is the latest recevied weather packets stored in our database for station/object F4NFR-13. If no packets are shown the sender has not sent any weather packets the latest 10 day(s).
| Time | Temp. | Humidity | Pressure | Rain* | Wind** | Luminosity | Snow |
|---|---|---|---|---|---|---|---|
| 1777831125 | 12.78° C | 89% | 1011.7 hPa | 0 mm | - | 57 W/m² | - |
| 1777830218 | 13.89° C | 86% | 1011.7 hPa | 0 mm | - | 56 W/m² | - |
| 1777829915 | 13.89° C | 86% | 1011.7 hPa | 0 mm | - | 65 W/m² | - |
| 1777829613 | 13.89° C | 86% | 1011.7 hPa | 0 mm | - | 57 W/m² | - |
| 1777829310 | 13.89° C | 85% | 1011.7 hPa | 0 mm | - | 53 W/m² | - |
| 1777829008 | 13.89° C | 83% | 1011.7 hPa | 0 mm | - | 54 W/m² | - |
| 1777828403 | 15° C | 83% | 1011.7 hPa | 0 mm | - | 120 W/m² | - |
| 1777828101 | 13.89° C | 82% | 1011.7 hPa | 0 mm | - | 128 W/m² | - |
| 1777827496 | 15° C | 81% | 1012 hPa | 0 mm | - | 107 W/m² | - |
| 1777827193 | 15° C | 82% | 1012 hPa | 0 mm | - | 96 W/m² | - |
| 1777826891 | 15° C | 82% | 1012 hPa | 0 mm | - | 111 W/m² | - |
| 1777826588 | 15° C | 82% | 1012 hPa | 0 mm | - | 132 W/m² | - |
| 1777826286 | 15° C | 83% | 1012 hPa | 0 mm | - | 148 W/m² | - |
| 1777825983 | 15° C | 83% | 1012 hPa | 0 mm | - | 157 W/m² | - |
| 1777825681 | 15° C | 82% | 1012 hPa | 0 mm | - | 159 W/m² | - |
| 1777825379 | 15° C | 83% | 1012 hPa | 0 mm | - | 190 W/m² | - |
| 1777825076 | 15° C | 86% | 1012 hPa | 0 mm | - | 185 W/m² | - |
| 1777824774 | 13.89° C | 88% | 1012 hPa | 0 mm | - | 187 W/m² | - |
| 1777824471 | 13.89° C | 88% | 1012.3 hPa | 0 mm | - | 212 W/m² | - |
| 1777824170 | 13.89° C | 89% | 1012 hPa | 0 mm | - | 210 W/m² | - |
| 1777823867 | 13.89° C | 88% | 1012.3 hPa | 0 mm | - | 217 W/m² | - |
| 1777823565 | 13.89° C | 88% | 1012.3 hPa | 0 mm | - | 234 W/m² | - |
| 1777823263 | 15° C | 85% | 1012.3 hPa | 0 mm | - | 237 W/m² | - |
| 1777822960 | 15° C | 83% | 1012 hPa | 0 mm | - | 261 W/m² | - |
| 1777822053 | 15° C | 82% | 1012 hPa | 0 mm | - | 274 W/m² | - |
* Rain latest hour (hover to see other rain measurements)
** Current wind speed in m/s (hover to see current wind gust speed)